www.pogodaiklimat.ru

Погода и климат >> Архив погоды >> Китай >> Lu Shan


ПОГОДА в Lu Shan

  • Прогноз погоды в Lu Shan
  • Монитор погоды в Lu Shan
  • Климат города

АРХИВ ПОГОДЫ в Lu Shan

Время (UTC), дата Ветер
(напр.,м/с)
 
Видим.   Явления Облачность Т
(С)
Тd
(С)
f
(%)
Тe
(С)
Тes
(С)
Комфортность P
(гПа)
Po
(гПа)
Тmin
(С)
Tmax
(С)
R
(мм)
R24
(мм)
S
(см)
18 12.07 Ю 8
{20}
200 м туман ?/? +20.8 +20.8 100 +25 +25 комфорт 1007.3 880.6 +21.3 0.1
21 12.07 Ю 7
{18}
11 км ?/? +20.7 +20.7 100 +25 +25 комфорт 1006.9 1007.0
00 13.07 Ю 9 9000 м 9/9 100 м
[]
+20.8 +20.8 100 +25 +25 комфорт 1007.8 1049.6 0.1
03 13.07 Ю 7 12 км 9/9 100 м
[]
+22.2 +22.2 100 +30 +30 очень
душно
1008.4 1008.0
06 13.07 Ю 3 17 км 9/9 100 м
[]
+24.0 +23.5 97 +32 +34 очень
душно
1008.0 882.1 +19.0
09 13.07 Ю 3 11 км 3/3 100 м
[]
+25.2 +22.1 83 +33 +35 очень
душно
1006.5 1007.0
12 13.07 Ю 4 6000 м дымка 4/4
[]
+21.9 +21.9 100 +29 +29 очень
душно
1007.7 1008.0
18 13.07 Ю 5 15 км ?/? +22.4 +22.4 100 +30 +30 очень
душно
1007.8 1008.0 +26.2
21 13.07 Ю 9 12 км ?/? +20.7 +20.7 100 +25 +25 комфорт 1006.1 1006.0
00 14.07 Ю 8 21 км 3/3 300 м
[]
+22.7 +20.0 85 +29 +30 очень
душно
1007.5 1008.0 1
03 14.07 Ю 3 20 км 3/3 300 м
[]
+24.4 +22.7 90 +32 +44 очень
душно
1008.2 1008.0
06 14.07 Ю 3 17 км 9/9 300 м
[]
+24.3 +23.8 97 +33 +35 очень
душно
1008.0 1028.5 +20.2
09 14.07 ЮВ 1 17 км 3/3 300 м
[]
+25.2 +22.1 83 +33 +36 очень
душно
1007.0 1007.0
12 14.07 Ю 2 19 км 3/3 300 м
[]
+21.5 +21.5 100 +28 +28 очень
душно
1007.4 881.4
18 14.07 Ю 4 18 км ?/? +21.7 +21.7 100 +28 +28 душно 1007.7 1008.0 +25.9
21 14.07 Ю 4 16 км н/о +21.2 +21.2 100 +27 +27 душно 1007.8 1008.0
00 15.07 Ю 4 13 км 4/4 300 м
[]
+23.9 +22.7 93 +31 +34 очень
душно
1009.4 1009.0
03 15.07 Ю 1 18 км 9/9 300 м
[]
+25.1 +20.4 75 +31 +33 очень
душно
1009.6 1010.0
06 15.07 С 2 12 км 9/9 300 м
[]
+26.1 +25.1 94 +37 +39 очень
душно
1008.2 1029.5 +21.1
09 15.07 штиль 0 18 км 3/3 300 м
[]
+25.4 +20.6 75 +32 +36 очень
душно
1007.4 1007.0
12 15.07 Ю 2 12 км ясно +22.6 +19.4 82 +29 +29 очень
душно
1007.5 882.0
18 15.07 Ю 3 18 км ?/? +21.3 +21.3 100 +27 +27 душно 1007.3 882.0 +27.0
21 15.07 Ю 5 13 км н/о +21.0 +21.0 100 +26 +26 душно 1007.5 1008.0
00 16.07 Ю 4 18 км ясно +23.8 +21.7 88 +30 +35 очень
душно
1008.5 1009.0
03 16.07 ЮВ 2 16 км 6/6 100 м
[]
+26.7 +23.0 80 +36 +44 очень
душно
1008.4 1008.0
06 16.07 С 1 15 км 9/9 100 м
[]
+25.8 +24.8 94 +37 +39 очень
душно
1008.0 1007.2 +20.9
09 16.07 Ю 3 20 км 9/9 100 м
[]
+24.1 +19.6 76 +29 +30 душно 1007.2 1007.0
12 16.07 Ю 2 22 км 8/8
[]
+21.4 +17.8 80 +26 +26 душно 1007.6 1008.0
18 16.07 Ю 7 22 км ?/? +22.2 +19.4 84 +28 +28 душно 1006.5 1007.0 +27.4
21 16.07 Ю 5 19 км ?/? +20.9 +20.9 100 +26 +26 душно 1007.4 1007.0
00 17.07 Ю 5 18 км 3/3
[]
+23.2 +22.2 94 +32 +34 очень
душно
1008.2 1007.7
03 17.07 СВ 2 16 км 5/5 300 м
[]
+27.0 +24.1 84 +37 +47 очень
душно
1007.9 1008.0
06 17.07 С 2 17 км 9/9 300 м
[]
+25.9 +23.8 88 +35 +37 очень
душно
1007.2 1007.0 +20.8
09 17.07 Ю 3 18 км 8/8 300 м
[]
+24.7 +21.8 84 +32 +32 очень
душно
1007.2 1007.0
12 17.07 В 2 21 км 3/3
[]
+22.4 +21.4 94 +29 +29 очень
душно
1007.3 1007.0
18 17.07 Ю 2 21 км ?/? +22.2 +22.2 100 +30 +30 очень
душно
1006.4 1006.0 +27.7
21 17.07 Ю 5 21 км ?/? +21.5 +21.5 100 +28 +28 очень
душно
1007.0 1007.0
00 18.07 Ю 2 19 км ясно +24.2 +22.3 89 +31 +38 очень
душно
1008.3 1008.0
03 18.07 Ю 4 19 км 1/1 300 м
[]
+26.1 +21.8 77 +34 +46 очень
душно
1008.2 1008.0
06 18.07 С 4 17 км 8/8 300 м
[]
+27.3 +24.8 86 +39 +41 очень
душно
1006.8 1007.0 +21.1
09 18.07 ЮВ 1 19 км 5/5 300 м
[]
+24.9 +21.0 79 +31 +34 очень
душно
1006.8 1007.0
12 18.07 ЮВ 7 21 км 3/3 300 м
[]
+23.2 +21.8 92 +31 +31 очень
душно
1006.4 1006.0
18 18.07 Ю 2 21 км ?/? +23.0 +22.5 97 +32 +32 очень
душно
1006.5 881.8 +28.3
21 18.07 Ю 4 19 км ?/? +22.4 +22.4 100 +30 +30 очень
душно
1007.5 1008.0
00 19.07 Ю 7 17 км 3/3 100 м
[]
+23.5 +23.3 99 +32 +33 очень
душно
1008.5 1009.0
03 19.07 Ю 4 19 км 1/1 100 м
[]
+26.3 +20.4 70 +33 +45 очень
душно
1008.1 1008.0
06 19.07 Ю 3 19 км 3/3 100 м
[]
+28.0 +20.0 62 +34 +45 очень
душно
1006.7 1007.0 +21.9
09 19.07 ЮВ 1 19 км 1/1 300 м
[]
+27.3 +19.6 63 +33 +38 очень
душно
1006.3 1006.0
12 19.07 Ю 8 19 км ясно +23.5 +20.6 84 +29 +29 душно 1006.3 881.0

 

Местоположение метеостанции Lu Shan (Китай): широта 29.58 долгота 115.98 высота над уровнем моря 1165 м.

В архиве по умолчанию представлена погода в Lu Shan за последнюю неделю. Архивные данные за месяц целиком и за предыдущие месяцы, начиная с января 2011 года, Вы можете получить, выбрав интересующий диапазон дат из раскрывающегося списка и нажав кнопку "Ввод!".


*Определитесь, кто Вы:
робот инопланетянин человек

Внимание! Время в таблицах - всемирное. Для получения местного времени необходимо прибавить поправку, которая в Lu Shan равна 8 ч.

Смотрите также архив погоды в соседних городах и на ближайших метеорологических станциях:

Погода в Nanchang (Китай) (109 км)
Погода в Jingdezhen (Китай) (122 км)
Погода в Anqing (Китай) (148 км)
Погода в Xiushui (Китай) (149 км)
Погода в Macheng (Китай) (203 км)
Погода в Huoshan (Китай) (205 км)
Погода в Wuhan (Китай) (212 км)
Погода в Huang Shan (Китай) (218 км)
Погода в Nancheng (Китай) (232 км)
Погода в Yichun (Китай) (252 км)

Пояснения к столбцам:

Ветер - указаны скорость ветра в м/с - средняя за 10 мин, порывы в срок и между сроками (в фигурных скобках) и направление, откуда дует ветер: С - северный, СВ - северо-восточный, В - восточный, ЮВ - юго-восточный, Ю - южный, ЮЗ - юго-западный, З - западный, СЗ - северо-западный.
Видимость - горизонтальная дальность видимости в метрах или километрах. При видимости от 1 до 10 км при отсутствии осадков обычно наблюдается дымка, при ухудшении видимости до 1 км и менее - туман. В сухую погоду видимость может ухудшаться дымом, пылью или мглою.
Явления - указаны атмосферные явления, наблюдавшиеся в срок или в последний час перед сроком; фигурными скобками обозначены явления, наблюдавшиеся между сроками (за 1-3 часа до срока); квадратными скобками обозначены град или гололедные отложения с указанием их диаметра в мм.
Облачность - указаны через наклонную черту общая и нижняя облачность в баллах и высота нижней границы облаков в метрах; квадратными скобками обозначены формы облаков: Ci - перистые, Cs - перисто-слоистые, Cc - перисто-кучевые, Ac - высококучевые, As - высокослоистые, Sc - слоисто-кучевые, Ns - слоисто-дождевые, Cu - кучевые, Cb - кучево-дождевые. Подробнее классификацию облаков см. в Атласе облаков (PDF).
T - Температура воздуха - температура, измеренная на высоте 2 м над землей.
Td - Температура точки росы - температура, при понижении до которой содержащийся в воздухе водяной пар достигнет насыщения.
f - Относительная влажность воздуха - влажноcть воздуха, измеренная на высоте 2 м над землей.
Te - Эффективная температура - температура, которую ощущает одетый по сезону человек в тени. Характеристика душности погоды. При расчете учитывается влияние влажности воздуха и скорости ветра на теплоощущения человека.
Tes - Эффективная температура на солнце - температура, которую ощущает человек, с поправкой на солнечный нагрев. Характеристика знойности погоды. Зависит от высоты солнца над горизонтом, облачности и скорости ветра. Ночью, в пасмурную погоду, а также при ветре 12 м/с и более поправка равна нулю.
P - Атмосферное давление - приведенное к уровню моря атмосферное давление.
Po - Атмосферное давление - измеренное на уровне метеостанции атмосферное давление.
Tmin - Минимальная температура - минимум температуры воздуха на высоте 2 м над землей.
Tmax - Максимальная температура - максимум температуры воздуха на высоте 2 м над землей.
R - Количество осадков - Количество выпавших осадков за период времени, мм. При наведении курсора мыши на число - период времени, за который выпало указанное количество осадков.
R24 - Количество осадков - Количество выпавших осадков за 24 часа, мм.
S - Снежный покров - Высота снежного покрова, см. При наведении курсора мыши на число - состояние снежного покрова и степень покрытия местности в баллах.